DW9246 Weather Reports


Display with metric or nautical units.
time (UTC)temp
F
wind
direction
speed
MPH
gust
MPH
rain 1hr
in
rain 24hr
in
rain mn
in
humidity
%
barometer
mb
20210510054011 57 312 3.0 7.0 0.00 0.09 0.00 73 1009.1
20210510053010 59 350 1.0 3.0 0.00 0.09 0.00 67 1008.7
20210510052011 59 352 1.0 3.0 0.00 0.09 0.00 67 1008.6
20210510051011 59 350 3.0 5.0 0.00 0.09 0.00 69 1008.5
20210510050012 60 32 3.0 8.0 0.00 0.09 0.00 70 1008.4
20210510045011 59 5 3.0 5.0 0.00 0.09 0.00 69 1008.4
20210510044012 59 9 3.0 8.0 0.00 0.09 0.00 69 1008.4
20210510043011 58 355 5.0 9.0 0.00 0.09 0.00 72 1008.4
20210510042010 58 336 5.0 9.0 0.00 0.09 0.00 75 1008.2
20210510041010 58 359 3.0 6.0 0.00 0.09 0.00 78 1008.1
20210510040011 57 334 2.0 5.0 0.00 0.09 0.00 78 1008.1
20210510035010 57 331 2.0 5.0 0.00 0.09 0.00 79 1008.1
20210510034010 57 352 2.0 4.0 0.00 0.09 0.00 79 1008.3
20210510033012 57 343 3.0 6.0 0.00 0.09 0.00 79 1008.2
20210510032010 57 340 4.0 6.0 0.00 0.09 0.00 80 1008.1
20210510031010 58 329 3.0 5.0 0.00 0.09 0.00 80 1008.1
20210510030011 58 341 3.0 5.0 0.00 0.09 0.00 80 1008.0
20210510025011 58 331 3.0 4.0 0.00 0.09 0.00 80 1008.2
20210510024010 59 347 2.0 4.0 0.00 0.09 0.00 80 1008.2
20210510023011 59 316 2.0 6.0 0.00 0.09 0.00 81 1008.1
20210510022010 59 336 3.0 4.0 0.00 0.09 0.00 81 1008.0
20210510021011 59 333 4.0 8.0 0.00 0.09 0.00 82 1008.2
20210510020010 59 328 5.0 8.0 0.00 0.09 0.00 82 1008.3
20210510015010 58 331 5.0 8.0 0.00 0.09 0.00 83 1008.5
20210510014010 58 335 4.0 6.0 0.00 0.09 0.00 83 1008.5
20210510013010 58 328 4.0 7.0 0.00 0.09 0.00 84 1008.8
20210510012011 58 334 4.0 8.0 0.00 0.09 0.00 84 1008.8
20210510011011 58 342 3.0 6.0 0.00 0.09 0.00 84 1008.9
20210510010010 58 340 3.0 4.0 0.00 0.09 0.00 84 1008.9
20210510005010 58 340 3.0 5.0 0.00 0.09 0.00 84 1009.1
20210510004011 58 334 2.0 5.0 0.00 0.09 0.00 84 1009.1
20210510003011 58 330 3.0 4.0 0.00 0.09 0.00 84 1009.2
20210510002010 58 326 1.0 3.0 0.00 0.09 0.00 84 1009.1
20210510001010 58 325 3.0 4.0 0.00 0.09 0.00 84 1009.0
20210510000011 59 323 1.0 2.0 0.00 0.09 0.00 84 1009.1
20210509235009 59 322 1.0 3.0 0.00 0.09 0.09 83 1009.3
20210509234010 59 326 3.0 7.0 0.00 0.09 0.09 84 1009.2
20210509233010 59 337 2.0 4.0 0.00 0.09 0.09 84 1009.3
20210509232010 59 330 2.0 4.0 0.00 0.09 0.09 84 1009.4
20210509231011 59 333 3.0 5.0 0.00 0.09 0.09 84 1009.6
20210509230011 59 333 3.0 7.0 0.00 0.09 0.09 84 1009.6
20210509225011 59 337 3.0 5.0 0.00 0.09 0.09 84 1009.6
20210509224010 59 335 2.0 4.0 0.00 0.09 0.09 84 1009.3
20210509223010 59 332 3.0 4.0 0.06 0.09 0.09 84 1009.0
20210509222010 59 341 2.0 5.0 0.06 0.09 0.09 84 1008.9
20210509221010 60 123 1.0 3.0 0.06 0.09 0.09 84 1009.0
20210509220010 59 47 2.0 5.0 0.06 0.09 0.09 84 1008.6
20210509215009 60 32 3.0 7.0 0.06 0.09 0.09 84 1008.5
20210509214014 60 205 4.0 8.0 0.06 0.09 0.09 83 1009.0
20210509213010 59 303 4.0 8.0 0.01 0.03 0.03 82 1009.4
20210509212010 59 324 3.0 5.0 0.02 0.03 0.03 82 1008.5
20210509211010 59 329 3.0 8.0 0.02 0.03 0.03 82 1008.5
20210509210010 59 322 3.0 5.0 0.02 0.03 0.03 83 1008.3
20210509205009 60 329 4.0 10.0 0.02 0.03 0.03 83 1008.4
20210509204009 61 342 1.0 4.0 0.02 0.03 0.03 83 1008.4
20210509203012 61 249 1.0 3.0 0.02 0.02 0.02 83 1008.8
20210509202010 61 9 1.0 3.0 0.00 0.01 0.01 82 1008.7
20210509201010 61 21 3.0 5.0 0.00 0.01 0.01 83 1008.2
20210509200009 61 68 2.0 4.0 0.00 0.01 0.01 82 1008.0
20210509195009 61 86 1.0 4.0 0.00 0.01 0.01 82 1007.6
20210509194010 61 86 1.0 3.0 0.00 0.01 0.01 82 1007.8
20210509193009 61 86 2.0 3.0 0.00 0.01 0.01 82 1007.4
20210509192010 61 86 1.0 3.0 0.00 0.01 0.01 81 1007.3
20210509191011 61 103 2.0 4.0 0.01 0.01 0.01 81 1007.1
20210509190009 61 50 3.0 7.0 0.01 0.01 0.01 80 1007.3
20210509185011 61 101 3.0 6.0 0.01 0.01 0.01 80 1006.9
20210509184009 61 137 3.0 7.0 0.01 0.01 0.01 79 1007.6
20210509183009 61 123 2.0 4.0 0.01 0.01 0.01 78 1006.9
20210509182010 61 155 3.0 9.0 0.01 0.01 0.01 76 1007.3
20210509181010 62 125 5.0 10.0 0.00 0.00 0.00 75 1007.0
20210509180011 63 177 2.0 8.0 0.00 0.00 0.00 73 1007.9
20210509175010 63 187 1.0 5.0 0.00 0.00 0.00 72 1007.3
20210509174010 62 253 2.0 5.0 0.00 0.00 0.00 72 1007.8
20210509173010 63 258 3.0 6.0 0.00 0.00 0.00 71 1007.3
20210509172010 63 230 3.0 6.0 0.00 0.00 0.00 70 1007.7
20210509171009 63 211 3.0 6.0 0.00 0.00 0.00 70 1007.7
20210509170010 63 187 2.0 6.0 0.00 0.00 0.00 69 1007.9
20210509165010 63 217 1.0 4.0 0.00 0.00 0.00 70 1007.9
20210509164010 63 193 3.0 5.0 0.00 0.00 0.00 70 1007.8
20210509163010 63 169 4.0 9.0 0.00 0.00 0.00 70 1007.9
20210509162010 63 164 4.0 9.0 0.00 0.00 0.00 70 1007.9
20210509161010 64 185 5.0 9.0 0.00 0.00 0.00 69 1007.8
20210509160010 64 174 7.0 11.0 0.00 0.00 0.00 68 1007.5
20210509155011 64 176 8.0 13.0 0.00 0.00 0.00 68 1007.1
20210509154009 65 178 8.0 15.0 0.00 0.00 0.00 66 1006.9
20210509153010 65 154 7.0 12.0 0.00 0.00 0.00 65 1006.5
20210509152010 65 153 8.0 14.0 0.00 0.00 0.00 65 1006.5
20210509151010 65 161 10.0 17.0 0.00 0.00 0.00 64 1006.8
20210509150011 66 160 10.0 15.0 0.00 0.00 0.00 63 1007.0
20210509145009 66 169 9.0 15.0 0.00 0.00 0.00 63 1006.8
20210509144010 67 167 10.0 14.0 0.00 0.00 0.00 62 1007.0
20210509143010 67 156 9.0 15.0 0.00 0.00 0.00 63 1007.1
20210509142010 67 164 10.0 15.0 0.00 0.00 0.00 63 1007.1
20210509141010 68 176 10.0 21.0 0.00 0.00 0.00 61 1007.3
20210509140010 69 187 8.0 17.0 0.00 0.00 0.00 60 1007.3
20210509135011 69 158 6.0 13.0 0.00 0.00 0.00 60 1007.4
20210509134009 69 177 7.0 12.0 0.00 0.00 0.00 60 1007.4
20210509133010 69 157 5.0 9.0 0.00 0.00 0.00 60 1007.4
20210509132009 68 146 5.0 8.0 0.00 0.00 0.00 61 1007.5
20210509131010 68 91 2.0 9.0 0.00 0.00 0.00 62 1007.5
20210509130010 67 117 3.0 6.0 0.00 0.00 0.00 64 1007.7
20210509125011 66 140 4.0 7.0 0.00 0.00 0.00 65 1008.0
20210509124009 66 144 4.0 8.0 0.00 0.00 0.00 65 1008.1
20210509123009 66 144 3.0 10.0 0.00 0.00 0.00 64 1008.4
20210509122009 66 151 3.0 8.0 0.00 0.00 0.00 63 1009.1
20210509121010 66 154 3.0 7.0 0.00 0.00 0.00 63 1009.3
20210509120009 66 139 2.0 8.0 0.00 0.00 0.00 64 1009.2
20210509115009 65 122 3.0 6.0 0.00 0.00 0.00 65 1009.2
20210509114009 65 124 2.0 3.0 0.00 0.00 0.00 64 1009.4
20210509113010 65 124 1.0 3.0 0.00 0.00 0.00 65 1009.5
20210509112010 65 148 2.0 4.0 0.00 0.00 0.00 64 1009.6
20210509111009 65 106 2.0 6.0 0.00 0.00 0.00 63 1009.5
20210509110009 65 109 2.0 4.0 0.00 0.00 0.00 63 1009.6
20210509105009 65 139 3.0 6.0 0.00 0.00 0.00 64 1009.9
20210509104009 65 170 4.0 8.0 0.00 0.00 0.00 63 1010.2
20210509103009 65 196 6.0 10.0 0.00 0.00 0.00 63 1010.9
20210509102010 65 203 7.0 13.0 0.00 0.00 0.00 62 1010.9
20210509101009 65 214 6.0 10.0 0.00 0.00 0.00 60 1010.8
20210509100009 66 196 5.0 10.0 0.00 0.00 0.00 60 1010.6
20210509095009 66 201 7.0 13.0 0.00 0.00 0.00 56 1011.0
20210509094009 66 192 6.0 11.0 0.00 0.00 0.00 53 1010.9
20210509093010 67 191 4.0 9.0 0.00 0.00 0.00 53 1010.6
20210509092008 67 171 3.0 8.0 0.00 0.00 0.00 54 1010.3
20210509091009 66 170 4.0 9.0 0.00 0.00 0.00 53 1010.4
20210509090009 66 162 3.0 7.0 0.00 0.00 0.00 55 1010.1
20210509085009 66 182 3.0 6.0 0.00 0.00 0.00 55 1009.9
20210509084009 66 173 2.0 5.0 0.00 0.00 0.00 56 1010.2
20210509083009 65 178 3.0 6.0 0.00 0.00 0.00 57 1010.2
20210509082008 65 173 4.0 8.0 0.00 0.00 0.00 57 1010.2
20210509081010 65 146 4.0 8.0 0.00 0.00 0.00 58 1010.3
20210509080009 66 125 2.0 6.0 0.00 0.00 0.00 57 1010.1
20210509075009 66 111 1.0 3.0 0.00 0.00 0.00 56 1010.1
20210509074009 65 110 1.0 3.0 0.00 0.00 0.00 56 1010.6
20210509073009 65 133 2.0 4.0 0.00 0.00 0.00 57 1010.7
20210509072009 64 162 4.0 7.0 0.00 0.00 0.00 59 1010.9
20210509071010 65 173 4.0 10.0 0.00 0.00 0.00 58 1010.9
20210509070009 65 173 1.0 2.0 0.00 0.00 0.00 61 1010.8
20210509065009 63 173 0.0 3.0 0.00 0.00 0.00 64 1010.8
20210509064008 62 173 2.0 5.0 0.00 0.00 0.00 64 1010.9
20210509063009 62 158 2.0 7.0 0.00 0.00 0.00 64 1011.0
20210509062010 62 334 1.0 3.0 0.00 0.00 0.00 65 1011.1
20210509061009 61 343 3.0 4.0 0.00 0.00 0.00 66 1011.1
20210509060009 61 342 3.0 4.0 0.00 0.00 0.00 65 1011.2
20210509055009 60 342 3.0 5.0 0.00 0.00 0.00 65 1011.3